Morgantown, WV

7:22 PM EST on February 06, 2016 (GMT -0500)
Morgantown Municipal-Hart

Weather History for KMGW - January, 2008

Change the Weather History Date:

Tuesday, January 15, 2008

  Actual Average Record
Temperature  
Mean Temperature 22 °F 31 °F  
Max Temperature 26 °F 39 °F 67 °F (1995)
Min Temperature 19 °F 24 °F -14 °F (1972)
Degree Days  
Heating Degree Days 42 34  
Month to date heating degree days 507  
Since 1 July heating degree days 2491  
Cooling Degree Days 0 0  
Month to date cooling degree days 0  
Year to date cooling degree days 0  
Moisture  
Dew Point 18 °F    
Average Humidity 79    
Maximum Humidity 93    
Minimum Humidity 68    
Precipitation  
Precipitation 0.02 in 0.09 in 0.74 in (1959)
Month to date precipitation 1.35  
Year to date precipitation 1.35  
Sea Level Pressure  
Sea Level Pressure 29.99 in    
Wind  
Wind Speed 5 mph (WSW)    
Max Wind Speed 14 mph    
Max Gust Speed 21 mph    
Visibility 4 miles    
Events Fog , Snow    
T = Trace of Precipitation, MM = Missing Value Source: NWS Daily Summary

Daily Weather History Graph

Daily Weather History Graph

Search for Another Location

Airport or City:

Trip Planner

Search our weather history database for the weather conditions in past years. The results will help you decide how hot, cold, wet, or windy it might be!

Date:

Astronomy

Jan. 15, 2008 Rise Set
Actual Time 7:38 AM EST 5:19 PM EST
Civil Twilight 7:09 AM EST 5:48 PM EST
Nautical Twilight 6:36 AM EST 6:22 PM EST
Astronomical Twilight 6:03 AM EST 6:54 PM EST
Moon 11:17 AM EST (1/15) 12:12 AM EST (1/15)
Length of Visible Light 10h 39m
Length of Day
9h 40m
Waxing Crescent, 49% of the Moon is Illuminated
Jan 15
Waxing Crescent
Jan 15
First Quarter
Jan 22
Full
Jan 30
Last Quarter
Feb 6
New

Hourly Weather History & Observations

Time (EST) Temp. Windchill Dew Point Humidity Pressure Visibility Wind Dir Wind Speed Gust Speed Precip Events Conditions
12:06 AM 26.6 °F 19.1 °F 19.4 °F 74% 29.98 in 10.0 mi Variable 6.9 mph - N/A   Overcast
12:15 AM 26.6 °F 19.1 °F 19.4 °F 74% 29.97 in 9.0 mi WSW 6.9 mph - N/A   Overcast
12:22 AM 26.6 °F 21.2 °F 19.4 °F 74% 29.97 in 8.0 mi Variable 4.6 mph - N/A   Overcast
12:53 AM 26.1 °F 18.4 °F 19.0 °F 75% 30.00 in 8.0 mi Variable 6.9 mph - N/A   Overcast
1:22 AM 26.6 °F 21.2 °F 19.4 °F 74% 29.95 in 10.0 mi SW 4.6 mph - N/A   Overcast
1:53 AM 26.1 °F 19.4 °F 19.9 °F 78% 29.99 in 10.0 mi SW 5.8 mph - N/A   Overcast
2:53 AM 26.1 °F 20.5 °F 19.9 °F 78% 29.99 in 10.0 mi SW 4.6 mph - N/A   Overcast
3:53 AM 26.1 °F 19.4 °F 19.0 °F 75% 29.96 in 10.0 mi SW 5.8 mph - N/A   Overcast
4:22 AM 26.6 °F - 19.4 °F 74% 29.91 in 10.0 mi Calm Calm - N/A   Overcast
4:35 AM 24.8 °F 19.1 °F 19.4 °F 80% 29.91 in 1.8 mi SSW 4.6 mph - 0.00 in Snow Light Snow
4:46 AM 24.8 °F - 21.2 °F 86% 29.90 in 2.0 mi Calm Calm - 0.00 in Snow Light Snow
4:53 AM 25.0 °F - 21.0 °F 85% 29.95 in 3.0 mi Calm Calm - 0.00 in Snow Light Snow
5:12 AM 24.8 °F - 21.2 °F 86% 29.90 in 4.0 mi Calm Calm - 0.00 in   Overcast
5:16 AM 24.8 °F - 21.2 °F 86% 29.90 in 1.8 mi Calm Calm - 0.00 in Snow Light Snow
5:28 AM 24.8 °F - 21.2 °F 86% 29.90 in 3.0 mi Calm Calm - 0.00 in Snow Light Snow
5:51 AM 24.8 °F - 21.2 °F 86% 29.90 in 7.0 mi Calm Calm - 0.00 in   Overcast
5:53 AM 25.0 °F 20.7 °F 21.9 °F 88% 29.94 in 6.0 mi NNW 3.5 mph - 0.00 in   Overcast
6:00 AM 24.8 °F 20.5 °F 21.2 °F 86% 29.90 in 1.8 mi WNW 3.5 mph - 0.00 in Snow Light Snow
6:10 AM 24.8 °F 20.5 °F 21.2 °F 86% 29.90 in 0.5 mi NW 3.5 mph - 0.01 in Fog , Snow Snow
6:21 AM 24.8 °F 20.5 °F 21.2 °F 86% 29.90 in 1.0 mi Variable 3.5 mph - 0.02 in Snow Light Snow
6:32 AM 23.0 °F 13.9 °F 19.4 °F 86% 29.91 in 0.2 mi NW 8.1 mph - 0.03 in Fog , Snow Snow
6:36 AM 23.0 °F 15.8 °F 19.4 °F 86% 29.91 in 0.2 mi Variable 5.8 mph - 0.04 in Fog , Snow Heavy Snow
7:04 AM 21.2 °F 13.6 °F 19.4 °F 93% 29.92 in 0.5 mi WNW 5.8 mph - 0.01 in Fog , Snow Snow
7:09 AM 23.0 °F 14.7 °F 19.4 °F 86% 29.92 in 1.0 mi NW 6.9 mph - 0.01 in Snow Light Snow
7:15 AM 23.0 °F - 19.4 °F 86% 29.93 in 3.0 mi Calm Calm - 0.01 in Snow Light Snow
7:19 AM 23.0 °F 18.4 °F 19.4 °F 86% 29.93 in 2.5 mi WNW 3.5 mph - 0.01 in Snow Light Snow
7:25 AM 23.0 °F - 19.4 °F 86% 29.93 in 1.8 mi Calm Calm - 0.01 in Snow Light Snow
7:34 AM 23.0 °F - 19.4 °F 86% 29.93 in 2.0 mi Calm Calm - 0.02 in Snow Light Snow
7:38 AM 23.0 °F - 19.4 °F 86% 29.93 in 3.0 mi Calm Calm - 0.02 in Snow Light Snow
7:53 AM 23.0 °F 17.0 °F 16.0 °F 74% 29.99 in 4.0 mi WSW 4.6 mph - 0.02 in Snow Light Snow
8:02 AM 21.2 °F 16.4 °F 15.8 °F 80% 29.94 in 1.8 mi Variable 3.5 mph - 0.00 in Snow Light Snow
8:24 AM 21.2 °F 11.7 °F 17.6 °F 86% 29.95 in 0.8 mi NW 8.1 mph - 0.00 in Snow Light Snow
8:31 AM 19.4 °F 8.6 °F 15.8 °F 86% 29.95 in 0.2 mi WNW 9.2 mph 20.7 mph 0.00 in Fog , Snow Snow
8:36 AM 21.2 °F 11.7 °F 15.8 °F 80% 29.95 in 0.5 mi WNW 8.1 mph 19.6 mph 0.00 in Snow Snow
8:40 AM 21.2 °F 12.6 °F 15.8 °F 80% 29.95 in 1.0 mi WNW 6.9 mph - 0.00 in Snow Light Snow
8:43 AM 21.2 °F 11.7 °F 15.8 °F 80% 29.95 in 3.0 mi WNW 8.1 mph - 0.00 in Snow Light Snow
8:53 AM 21.0 °F 12.4 °F 16.0 °F 81% 30.01 in 1.5 mi West 6.9 mph - 0.00 in Snow Light Snow
9:03 AM 21.2 °F 14.9 °F 15.8 °F 80% 29.96 in 2.0 mi Variable 4.6 mph - 0.00 in Snow Light Snow
9:11 AM 21.2 °F 14.9 °F 15.8 °F 80% 29.96 in 9.0 mi West 4.6 mph - 0.00 in   Overcast
9:53 AM 21.9 °F 14.5 °F 14.0 °F 72% 30.03 in 8.0 mi WSW 5.8 mph - 0.00 in   Overcast
10:00 AM 21.2 °F 13.6 °F 15.8 °F 80% 29.99 in 0.8 mi Variable 5.8 mph - 0.00 in Snow Light Snow
10:53 AM 21.9 °F 14.5 °F 14.0 °F 72% 30.05 in 4.0 mi WSW 5.8 mph - 0.00 in Snow Light Snow
11:14 AM 21.2 °F 13.6 °F 15.8 °F 80% 30.00 in 2.0 mi Variable 5.8 mph - 0.00 in Snow Light Snow
11:34 AM 21.2 °F 12.6 °F 15.8 °F 80% 29.99 in 1.8 mi SW 6.9 mph - 0.00 in Snow Light Snow
11:41 AM 21.2 °F 12.6 °F 15.8 °F 80% 29.99 in 2.5 mi SW 6.9 mph - 0.00 in Snow Light Snow
11:53 AM 21.9 °F 12.5 °F 15.1 °F 75% 30.04 in 2.5 mi WSW 8.1 mph - 0.00 in Snow Light Snow
12:01 PM 23.0 °F 14.7 °F 14.0 °F 68% 29.99 in 4.0 mi Variable 6.9 mph - 0.00 in   Haze
12:21 PM 23.0 °F 17.0 °F 15.8 °F 74% 29.99 in 2.0 mi Variable 4.6 mph - 0.00 in Snow Light Snow
12:29 PM 21.2 °F 13.6 °F 15.8 °F 80% 29.99 in 1.5 mi SW 5.8 mph - 0.00 in Snow Light Snow
12:36 PM 23.0 °F 15.8 °F 17.6 °F 80% 29.99 in 3.0 mi Variable 5.8 mph - 0.00 in Snow Light Snow
12:48 PM 23.0 °F 13.1 °F 15.8 °F 74% 29.99 in 2.5 mi SW 9.2 mph 17.3 mph 0.00 in Snow Light Snow
12:53 PM 23.0 °F 13.9 °F 15.1 °F 72% 30.04 in 3.0 mi SW 8.1 mph - 0.00 in Snow Light Snow
1:00 PM 23.0 °F 13.9 °F 15.8 °F 74% 29.98 in 2.0 mi WSW 8.1 mph 16.1 mph 0.00 in Snow Light Snow
1:12 PM 23.0 °F 13.9 °F 17.6 °F 80% 29.98 in 1.5 mi SW 8.1 mph 16.1 mph 0.00 in Snow Light Snow
1:28 PM 24.8 °F 16.9 °F 17.6 °F 74% 29.98 in 2.0 mi Variable 6.9 mph - 0.00 in Snow Light Snow
1:41 PM 24.8 °F 16.9 °F 17.6 °F 74% 29.98 in 4.0 mi SW 6.9 mph - 0.00 in   Haze
1:53 PM 24.1 °F 15.2 °F 18.0 °F 77% 30.04 in 2.0 mi SW 8.1 mph - 0.00 in Snow Light Snow
2:00 PM 24.8 °F 16.1 °F 17.6 °F 74% 29.99 in 1.5 mi WSW 8.1 mph - 0.00 in Snow Light Snow
2:09 PM 24.8 °F 16.9 °F 17.6 °F 74% 29.99 in 3.0 mi Variable 6.9 mph - 0.00 in Snow Light Snow
2:25 PM 24.8 °F 15.3 °F 17.6 °F 74% 30.00 in 2.5 mi SW 9.2 mph - 0.00 in Snow Light Snow
2:53 PM 24.1 °F 14.4 °F 18.0 °F 77% 30.06 in 2.0 mi WSW 9.2 mph 16.1 mph 0.00 in Snow Light Snow
3:00 PM 24.8 °F 16.1 °F 17.6 °F 74% 30.01 in 1.5 mi SW 8.1 mph - 0.00 in Snow Light Snow
3:33 PM 24.8 °F 16.1 °F 17.6 °F 74% 30.02 in 2.0 mi SW 8.1 mph - 0.00 in Snow Light Snow
3:43 PM 24.8 °F 16.9 °F 17.6 °F 74% 30.02 in 1.5 mi SW 6.9 mph - 0.00 in Snow Light Snow
3:53 PM 24.1 °F 12.0 °F 18.0 °F 77% 30.07 in 1.8 mi WSW 13.8 mph - 0.00 in Snow Light Snow
4:22 PM 24.8 °F 16.1 °F 17.6 °F 74% 30.04 in 2.0 mi WSW 8.1 mph - 0.00 in Snow Light Snow
4:33 PM 24.8 °F 19.1 °F 17.6 °F 74% 30.05 in 4.0 mi WSW 4.6 mph - 0.00 in   Haze
4:40 PM 24.8 °F 14.0 °F 17.6 °F 74% 30.05 in 5.0 mi WSW 11.5 mph - 0.00 in Snow Light Snow
4:53 PM 24.1 °F 13.1 °F 18.0 °F 77% 30.10 in 3.0 mi WSW 11.5 mph - 0.00 in Snow Light Snow
5:53 PM 24.1 °F 18.2 °F 18.0 °F 77% 30.14 in 5.0 mi Variable 4.6 mph - 0.00 in Snow Light Snow
6:53 PM 24.1 °F 16.0 °F 17.1 °F 75% 30.17 in 9.0 mi Variable 6.9 mph - 0.00 in Snow Light Snow
8:53 PM 24.1 °F - 17.1 °F 75% 30.21 in 9.0 mi Calm Calm - 0.00 in Snow Light Snow
9:53 PM 24.1 °F 17.0 °F 17.1 °F 75% 30.23 in 10.0 mi WSW 5.8 mph - 0.00 in   Overcast
10:53 PM 24.1 °F 17.0 °F 17.1 °F 75% 30.25 in 10.0 mi Variable 5.8 mph - N/A   Overcast
11:21 PM 24.8 °F 17.9 °F 17.6 °F 74% 30.20 in 7.0 mi SW 5.8 mph - N/A   Overcast
11:53 PM 23.0 °F 15.8 °F 18.0 °F 81% 30.25 in 7.0 mi SW 5.8 mph - N/A   Overcast